BGGH

Nuuk Airport

Airport
ICAO code
BGGH
Summary
ICAO Region
NAT
ICAO Territory
Location

Nuuk,

Serving
Nuuk
Elevation
283 ft
Coordinates
64° 11' 27" N , 51° 40' 41" W
KCC
Metar
BGGH 222050Z 20018KT 1300 SHSN VV008 M11/M13 Q1007

Description

International airport serving Godthaab/Nuuk, Greenland.

Climatology

Tundra Climate (Köppen climate classification ET) - average temperature below 10°C in all twelve months of the year with very little precipitation.

Runways

Designator Length Width Surface Rops
5/23 950 30 ASP No/No

Airport map

Aerial View

Airport accidents

SKYbrary Partners:

Safety knowledge contributed by: